Simultaneous Nadir Overpasses (SNOs) Predictions

Prediction of SNOs between AQUA and NPP Satellite Orbit:

Table of predicted SNOs for the next 14.0 days since TLE Epoch: 11/23/2013
Index Date (AQUA) Time (AQUA) Lat,Lon (AQUA) SZA (AQUA ) Date (NPP) Time (NPP) Lat,Lon (NPP) SZA (NPP ) Distance(km) Time Diff (sec)
1 11/24/2013 05:33:57 73.11, -31.36 119.42 11/24/2013 05:33:15 73.12, -31.30 119.45 2.27 42
2 11/24/2013 06:22:56 -74.59, 139.57 62.04 11/24/2013 06:23:31 -74.60, 139.61 62.08 1.43 35
3 11/26/2013 21:50:14 73.63, 85.62 119.46 11/26/2013 21:50:05 73.64, 85.64 119.46 0.96 9
4 11/26/2013 22:39:14 -75.05,-103.37 61.95 11/26/2013 22:40:22 -75.05,-103.36 62.02 0.31 68
5 11/29/2013 13:17:36 -72.45, 31.51 58.90 11/29/2013 13:16:44 -72.45, 31.50 58.84 0.24 52
6 11/29/2013 14:06:28 74.19,-157.24 119.42 11/29/2013 14:06:53 74.19,-157.24 119.39 0.37 25
7 12/02/2013 05:33:50 -73.01, 148.49 58.97 12/02/2013 05:33:33 -73.01, 148.42 58.94 2.31 17
8 12/02/2013 06:22:43 74.68, -40.15 119.39 12/02/2013 06:23:43 74.68, -40.20 119.34 1.65 60
9 12/04/2013 21:01:06 71.92, 94.73 122.49 12/04/2013 21:00:08 71.91, 94.68 122.58 2.07 58




NCC Satellite Simultaneous Nadir Overpasses (SNOs) Prediction Service
